FW5486 Weather Reports


Display with metric or nautical units.
time (UTC)temp
F
wind
direction
speed
MPH
gust
MPH
rain 1hr
in
rain 24hr
in
rain mn
in
humidity
%
barometer
mb
20260505003806 72 150 3.0 11.0 0.00 0.00 0.00 59 1013.9
20260505003537 72 174 3.0 10.0 0.00 0.00 0.00 59 1014.1
20260505002807 72 161 4.0 12.0 0.00 0.00 0.00 58 1014.0
20260505002532 72 160 3.0 12.0 0.00 0.00 0.00 58 1013.9
20260505001803 73 169 4.0 13.0 0.00 0.00 0.00 58 1014.0
20260505001301 73 140 4.0 13.0 0.00 0.00 0.00 57 1014.0
20260505000801 73 148 2.0 8.0 0.00 0.00 0.00 57 1013.9
20260505000302 73 228 2.0 7.0 0.00 0.00 0.00 56 1014.0
20260505000033 74 165 1.0 6.0 0.00 0.00 0.00 56 1014.1
20260504235304 74 235 2.0 9.0 0.00 0.00 0.00 56 1014.2
20260504234802 74 219 2.0 9.0 0.00 0.00 0.00 55 1014.3
20260504234303 74 167 2.0 8.0 0.00 0.00 0.00 55 1014.2
20260504233754 74 187 2.0 8.0 0.00 0.00 0.00 54 1014.4
20260504233254 74 173 1.0 5.0 0.00 0.00 0.00 55 1014.4
20260504232752 75 153 2.0 10.0 0.00 0.00 0.00 54 1014.5
20260504232251 75 182 2.0 10.0 0.00 0.00 0.00 53 1014.6
20260504231749 75 165 1.0 4.0 0.00 0.00 0.00 53 1014.7
20260504231246 75 217 1.0 4.0 0.00 0.00 0.00 53 1014.8
20260504230745 75 219 2.0 8.0 0.00 0.00 0.00 53 1014.8
20260504230246 75 219 2.0 8.0 0.00 0.00 0.00 53 1014.8
20260504225743 76 193 2.0 9.0 0.00 0.00 0.00 52 1014.8
20260504225243 76 205 3.0 11.0 0.00 0.00 0.00 54 1014.8
20260504224744 76 166 2.0 11.0 0.00 0.00 0.00 51 1014.9
20260504224238 76 150 1.0 7.0 0.00 0.00 0.00 51 1014.9
20260504223740 76 178 2.0 6.0 0.00 0.00 0.00 51 1014.9
20260504223238 76 219 2.0 6.0 0.00 0.00 0.00 51 1015.0
20260504222740 76 273 1.0 6.0 0.00 0.00 0.00 50 1014.9
20260504222239 76 259 2.0 6.0 0.00 0.00 0.00 52 1015.1
20260504221739 77 164 2.0 5.0 0.00 0.00 0.00 49 1015.1
20260504221233 77 204 2.0 5.0 0.00 0.00 0.00 52 1015.0
20260504221006 77 201 2.0 5.0 0.00 0.00 0.00 50 1015.1
20260504220234 78 220 2.0 3.0 0.00 0.00 0.00 49 1015.2
20260504215733 77 238 2.0 7.0 0.00 0.00 0.00 50 1015.2
20260504215234 77 243 2.0 7.0 0.00 0.00 0.00 52 1015.2
20260504214732 78 184 1.0 4.0 0.00 0.00 0.00 49 1015.4
20260504214234 78 205 2.0 4.0 0.00 0.00 0.00 48 1015.2
20260504213727 78 223 3.0 6.0 0.00 0.00 0.00 48 1015.5
20260504213229 77 228 3.0 8.0 0.00 0.00 0.00 49 1015.5
20260504212731 77 233 3.0 8.0 0.00 0.00 0.00 48 1015.6
20260504212228 77 204 3.0 10.0 0.00 0.00 0.00 47 1015.7
20260504211728 77 215 4.0 13.0 0.00 0.00 0.00 48 1015.7
20260504211228 77 202 4.0 13.0 0.00 0.00 0.00 48 1015.7
20260504210722 77 182 2.0 9.0 0.00 0.00 0.00 47 1015.6
20260504210218 77 220 2.0 9.0 0.00 0.00 0.00 46 1015.6
20260504205718 77 182 2.0 7.0 0.00 0.00 0.00 50 1015.7
20260504205216 77 205 3.0 10.0 0.00 0.00 0.00 50 1015.9
20260504204948 77 171 3.0 10.0 0.00 0.00 0.00 47 1015.8
20260504204212 77 117 3.0 7.0 0.00 0.00 0.00 47 1015.9
20260504203712 77 241 2.0 7.0 0.00 0.00 0.00 47 1016.0
20260504203209 77 236 2.0 11.0 0.00 0.00 0.00 48 1015.9
20260504202941 78 198 3.0 11.0 0.00 0.00 0.00 47 1016.1
20260504202210 78 240 2.0 7.0 0.00 0.00 0.00 52 1016.1
20260504201710 77 228 2.0 6.0 0.00 0.00 0.00 48 1016.1
20260504201206 77 219 3.0 7.0 0.00 0.00 0.00 48 1016.3
20260504200938 77 230 2.0 8.0 0.00 0.00 0.00 46 1016.5
20260504200434 77 209 3.0 13.0 0.00 0.00 0.00 48 1016.6
20260504195702 77 244 3.0 13.0 0.00 0.00 0.00 48 1016.6
20260504195200 77 164 2.0 10.0 0.00 0.00 0.00 48 1016.6
20260504194701 77 215 2.0 13.0 0.00 0.00 0.00 48 1016.6
20260504194156 77 173 4.0 13.0 0.00 0.00 0.00 46 1016.9
20260504193654 76 187 4.0 10.0 0.00 0.00 0.00 49 1016.8
20260504193157 77 161 3.0 10.0 0.00 0.00 0.00 47 1017.0
20260504192657 77 215 3.0 10.0 0.00 0.00 0.00 50 1017.1
20260504192154 77 117 3.0 10.0 0.00 0.00 0.00 47 1017.0
20260504191653 77 185 2.0 10.0 0.00 0.00 0.00 46 1017.1
20260504191146 77 247 3.0 11.0 0.00 0.00 0.00 47 1017.3
20260504190647 77 293 3.0 11.0 0.00 0.00 0.00 47 1017.2
20260504190148 77 199 2.0 11.0 0.00 0.00 0.00 49 1017.3
20260504185648 77 186 4.0 12.0 0.00 0.00 0.00 49 1017.6
20260504185148 77 186 4.0 12.0 0.00 0.00 0.00 45 1017.5
20260504184647 77 184 2.0 8.0 0.00 0.00 0.00 47 1017.6
20260504184140 78 221 2.0 13.0 0.00 0.00 0.00 45 1017.5
20260504183910 77 267 2.0 13.0 0.00 0.00 0.00 45 1017.6
20260504183137 77 244 2.0 13.0 0.00 0.00 0.00 48 1017.6
20260504182637 76 192 3.0 13.0 0.00 0.00 0.00 47 1017.6
20260504182134 76 152 4.0 10.0 0.00 0.00 0.00 46 1017.6
20260504181635 77 178 3.0 10.0 0.00 0.00 0.00 46 1017.7
20260504181400 76 238 3.0 11.0 0.00 0.00 0.00 49 1017.6
20260504180629 77 186 3.0 11.0 0.00 0.00 0.00 45 1017.6
20260504180130 76 230 3.0 11.0 0.00 0.00 0.00 47 1017.7
20260504175628 76 218 3.0 11.0 0.00 0.00 0.00 49 1017.6
20260504175128 76 232 4.0 17.0 0.00 0.00 0.00 48 1017.9
20260504174900 76 201 5.0 17.0 0.00 0.00 0.00 49 1017.9
20260504174129 76 169 4.0 15.0 0.00 0.00 0.00 48 1018.0
20260504173858 76 237 3.0 10.0 0.00 0.00 0.00 47 1018.1
20260504173128 76 186 3.0 10.0 0.00 0.00 0.00 51 1018.2
20260504172630 76 217 3.0 7.0 0.00 0.00 0.00 47 1018.3
20260504172127 75 265 6.0 14.0 0.00 0.00 0.00 47 1018.4
20260504171857 75 207 7.0 15.0 0.00 0.00 0.00 46 1018.4
20260504171129 75 188 4.0 15.0 0.00 0.00 0.00 47 1018.6
20260504170854 75 194 3.0 11.0 0.00 0.00 0.00 46 1018.6
20260504170123 75 178 3.0 11.0 0.00 0.00 0.00 46 1018.6
20260504160114 74 252 3.0 9.0 0.00 0.00 0.00 46 1019.0
20260504150559 73 206 3.0 12.0 0.00 0.00 0.00 47 1019.0
20260504141048 71 215 1.0 9.0 0.00 0.00 0.00 61 1019.0
20260504140549 70 136 1.0 3.0 0.00 0.00 0.00 63 1019.0
20260504130536 63 130 0.0 0.0 0.00 0.00 0.00 77 1019.0
20260504110504 53 234 0.0 0.0 0.00 0.00 0.00 91 1018.2
20260504100443 53 234 0.0 0.0 0.00 0.00 0.00 90 1018.2
20260504081932 55 234 0.0 0.0 0.00 0.00 0.00 88 1018.7
20260504081431 55 234 0.0 0.0 0.00 0.00 0.00 87 1018.7
20260504080429 55 234 0.0 0.0 0.00 0.00 0.00 88 1018.9
20260504070303 56 234 0.0 0.0 0.00 0.00 0.00 85 1019.2
20260504070152 56 234 0.0 0.0 0.00 0.00 0.00 85 1019.2
20260504050348 59 234 0.0 0.0 0.00 0.00 0.00 76 1019.8
20260504045847 60 234 0.0 0.0 0.00 0.00 0.00 76 1019.9
20260504045344 60 234 0.0 0.0 0.00 0.00 0.00 76 1020.0
20260504045116 60 234 0.0 0.0 0.00 0.00 0.00 75 1019.9
20260504044338 60 234 0.0 0.0 0.00 0.00 0.00 74 1020.0
20260504043837 60 234 0.0 0.0 0.00 0.00 0.00 74 1020.0
20260504043335 61 234 0.0 0.0 0.00 0.00 0.00 74 1020.0
20260504042833 61 234 0.0 0.0 0.00 0.00 0.00 73 1020.2
20260504042333 61 234 0.0 0.0 0.00 0.00 0.00 72 1020.3
20260504041827 62 234 0.0 0.0 0.00 0.00 0.00 72 1020.3
20260504041324 62 234 0.0 2.0 0.00 0.00 0.00 72 1020.3
20260504041055 62 234 0.0 2.0 0.00 0.00 0.00 70 1020.3
20260504040551 62 234 0.0 2.0 0.00 0.00 0.00 69 1020.4
20260504035821 62 234 0.0 2.0 0.00 0.00 0.00 68 1020.4
20260504035319 63 234 0.0 2.0 0.00 0.00 0.00 68 1020.3
20260504034818 63 234 0.0 2.0 0.00 0.00 0.00 68 1020.3
20260504034317 63 234 0.0 2.0 0.00 0.00 0.00 67 1020.2
20260504033816 64 234 0.0 2.0 0.00 0.00 0.00 66 1020.2
20260504033314 64 234 0.0 2.0 0.00 0.00 0.00 65 1020.2
20260504032816 64 234 1.0 2.0 0.00 0.00 0.00 65 1020.1
20260504032310 64 234 1.0 2.0 0.00 0.00 0.00 65 1020.2
20260504031806 65 234 1.0 2.0 0.00 0.00 0.00 65 1020.1
20260504031305 65 234 1.0 1.0 0.00 0.00 0.00 64 1020.2
20260504030803 65 234 1.0 2.0 0.00 0.00 0.00 62 1020.3
20260504030533 65 234 1.0 2.0 0.00 0.00 0.00 62 1020.2
20260504025802 66 234 1.0 3.0 0.00 0.00 0.00 60 1020.2
20260504025259 66 220 1.0 3.0 0.00 0.00 0.00 61 1020.1
20260504024759 65 141 1.0 2.0 0.00 0.00 0.00 60 1020.1
20260504024259 64 204 0.0 2.0 0.00 0.00 0.00 68 1020.1
20260504023756 64 148 0.0 3.0 0.00 0.00 0.00 67 1020.0
20260504023258 64 148 0.0 3.0 0.00 0.00 0.00 66 1020.0
20260504023022 65 167 0.0 3.0 0.00 0.00 0.00 63 1020.0
20260504022251 65 167 0.0 3.0 0.00 0.00 0.00 64 1020.0
20260504022021 65 167 0.0 2.0 0.00 0.00 0.00 65 1020.0
20260504021247 66 167 0.0 2.0 0.00 0.00 0.00 65 1019.9
20260504020749 66 167 0.0 2.0 0.00 0.00 0.00 64 1019.9
20260504020243 66 167 1.0 4.0 0.00 0.00 0.00 62 1019.8
20260504015744 66 167 1.0 4.0 0.00 0.00 0.00 59 1019.7
20260504015246 66 157 1.0 3.0 0.00 0.00 0.00 61 1019.8
20260504014744 66 134 0.0 0.0 0.00 0.00 0.00 60 1019.7
20260504014243 66 134 0.0 0.0 0.00 0.00 0.00 59 1019.7
20260504013744 67 134 0.0 0.0 0.00 0.00 0.00 62 1019.6
20260504013511 67 134 0.0 0.0 0.00 0.00 0.00 60 1019.5
20260504012739 67 134 0.0 0.0 0.00 0.00 0.00 60 1019.4
20260504012512 67 134 0.0 0.0 0.00 0.00 0.00 59 1019.3
20260504012012 68 134 0.0 0.0 0.00 0.00 0.00 58 1019.3
20260504011239 68 134 0.0 0.0 0.00 0.00 0.00 56 1019.2
20260504010740 69 134 0.0 0.0 0.00 0.00 0.00 55 1019.3
20260504010235 69 134 0.0 0.0 0.00 0.00 0.00 53 1019.2
20260504005736 70 134 0.0 0.0 0.00 0.00 0.00 52 1019.2
20260504005236 70 134 0.0 0.0 0.00 0.00 0.00 52 1019.2
20260504004735 71 134 0.0 0.0 0.00 0.00 0.00 51 1019.2
20260504004236 71 134 0.0 0.0 0.00 0.00 0.00 48 1019.3